Middletown, OH

6:46 PM EDT on May 26, 2017 (GMT -0400)
Hook Field Municipal

Weather History for KMWO - April, 2014

Change the Weather History Date:

Saturday, April 12, 2014

  Actual Average (KFFO) Record (KFFO)
Temperature  
Mean Temperature 56 °F -  
Max Temperature 76 °F 61 °F 80 °F (2001)
Min Temperature 35 °F 40 °F 28 °F (2009)
Degree Days  
Heating Degree Days 10    
Growing Degree Days 6 (Base 50)    
Moisture  
Dew Point 43 °F    
Average Humidity 59    
Maximum Humidity 88    
Minimum Humidity 34    
Precipitation  
Precipitation 0.00 in - - ()
Sea Level Pressure  
Sea Level Pressure 30.06 in    
Wind  
Wind Speed 5 mph (SSW)    
Max Wind Speed 20 mph    
Max Gust Speed 28 mph    
Visibility 10 miles    
Events      
Averages and records for this station are not official NWS values.
T = Trace of Precipitation, MM = Missing Value Source: NWS Daily Summary

Daily Weather History Graph

Daily Weather History Graph

Search for Another Location

Airport or City:

Trip Planner

Search our weather history database for the weather conditions in past years. The results will help you decide how hot, cold, wet, or windy it might be!

Date:

Astronomy

Apr. 12, 2014 Rise Set
Actual Time 7:04 AM EDT 8:12 PM EDT
Civil Twilight 6:37 AM EDT 8:40 PM EDT
Nautical Twilight 6:04 AM EDT 9:13 PM EDT
Astronomical Twilight 5:29 AM EDT 9:47 PM EDT
Moon 5:50 PM EDT (4/12) 5:30 AM EDT (4/12)
Length of Visible Light 14h 03m
Length of Day
13h 07m
Waxing Gibbous, 93% of the Moon is Illuminated
Apr 12
Waxing Gibbous
Apr 15
Full
Apr 22
Last Quarter
Apr 29
New
May 6
First Quarter

Hourly Weather History & Observations

Time (EDT) Temp. Windchill Dew Point Humidity Pressure Visibility Wind Dir Wind Speed Gust Speed Precip Events Conditions
12:15 AM 46.6 °F - 39.7 °F 77% 30.11 in 10.0 mi Calm Calm - N/A   Clear
12:35 AM 45.1 °F - 38.8 °F 79% 30.12 in 10.0 mi Calm Calm - N/A   Clear
12:55 AM 41.9 °F - 36.9 °F 82% 30.12 in 10.0 mi Calm Calm - N/A   Clear
1:15 AM 42.6 °F - 37.4 °F 82% 30.12 in 10.0 mi Calm Calm - N/A   Clear
1:35 AM 41.9 °F - 36.5 °F 81% 30.12 in 10.0 mi Calm Calm - N/A   Clear
1:55 AM 41.5 °F - 36.5 °F 82% 30.12 in 10.0 mi Calm Calm - N/A   Clear
2:15 AM 41.4 °F - 36.5 °F 83% 30.13 in 10.0 mi Calm Calm - N/A   Clear
2:35 AM 41.0 °F 39.0 °F 36.1 °F 83% 30.13 in 10.0 mi NE 3.5 mph - N/A   Clear
2:55 AM 41.2 °F - 36.7 °F 84% 30.13 in 10.0 mi Calm Calm - N/A   Clear
3:15 AM 41.2 °F 39.2 °F 36.3 °F 83% 30.13 in 10.0 mi NNE 3.5 mph - N/A   Clear
3:35 AM 40.1 °F - 35.6 °F 84% 30.13 in 10.0 mi Calm Calm - N/A   Clear
3:55 AM 40.1 °F - 36.0 °F 85% 30.13 in 10.0 mi Calm Calm - N/A   Clear
4:15 AM 40.1 °F - 36.1 °F 86% 30.14 in 10.0 mi Calm Calm - N/A   Clear
4:35 AM 40.1 °F 38.0 °F 36.3 °F 86% 30.14 in 10.0 mi NNE 3.5 mph - N/A   Clear
4:55 AM 39.0 °F - 35.2 °F 86% 30.15 in 10.0 mi Calm Calm - N/A   Clear
5:15 AM 39.2 °F - 35.6 °F 87% 30.15 in 10.0 mi Calm Calm - N/A   Clear
5:35 AM 38.8 °F - 35.1 °F 86% 30.15 in 10.0 mi Calm Calm - N/A   Clear
5:55 AM 38.8 °F - 35.2 °F 87% 30.15 in 10.0 mi Calm Calm - N/A   Clear
6:15 AM 38.3 °F - 34.7 °F 87% 30.16 in 10.0 mi Calm Calm - N/A   Clear
6:35 AM 38.7 °F - 35.1 °F 87% 30.16 in 10.0 mi Calm Calm - N/A   Clear
6:55 AM 35.8 °F - 32.4 °F 87% 30.17 in 7.0 mi Calm Calm - N/A   Clear
7:15 AM 38.8 °F - 35.6 °F 88% 30.17 in 5.0 mi Calm Calm - N/A   Clear
7:35 AM 37.8 °F - 34.3 °F 87% 30.17 in 7.0 mi Calm Calm - N/A   Clear
7:55 AM 40.1 °F - 36.7 °F 88% 30.18 in 10.0 mi Calm Calm - N/A   Clear
8:15 AM 42.3 °F - 38.7 °F 87% 30.18 in 10.0 mi Calm Calm - N/A   Scattered Clouds
8:35 AM 45.3 °F - 41.5 °F 87% 30.17 in 10.0 mi Calm Calm - N/A   Clear
8:55 AM 47.7 °F - 43.5 °F 86% 30.17 in 10.0 mi Calm Calm - N/A   Clear
9:15 AM 52.7 °F - 45.7 °F 77% 30.17 in 10.0 mi Calm Calm - N/A   Clear
9:35 AM 57.6 °F - 45.1 °F 63% 30.17 in 10.0 mi SSE 4.6 mph - N/A   Mostly Cloudy
9:55 AM 58.6 °F - 44.1 °F 58% 30.16 in 10.0 mi SSE 6.9 mph - N/A   Overcast
10:15 AM 60.1 °F - 43.2 °F 54% 30.15 in 10.0 mi SE 8.1 mph - N/A   Overcast
10:35 AM 62.6 °F - 43.9 °F 50% 30.15 in 10.0 mi South 8.1 mph - N/A   Mostly Cloudy
10:55 AM 65.3 °F - 44.6 °F 47% 30.15 in 10.0 mi South 9.2 mph - N/A   Mostly Cloudy
11:15 AM 67.6 °F - 45.3 °F 45% 30.15 in 10.0 mi South 6.9 mph - N/A   Scattered Clouds
11:35 AM 67.6 °F - 44.4 °F 43% 30.14 in 10.0 mi South 12.7 mph 16.1 mph N/A   Clear
11:55 AM 68.0 °F - 43.7 °F 41% 30.13 in 10.0 mi South 16.1 mph 21.9 mph N/A   Clear
12:15 PM 68.9 °F - 45.5 °F 43% 30.12 in 10.0 mi South 12.7 mph - N/A   Scattered Clouds
12:35 PM 69.3 °F - 47.3 °F 45% 30.11 in 10.0 mi South 12.7 mph 20.7 mph N/A   Mostly Cloudy
12:55 PM 72.7 °F - 50.0 °F 45% 30.09 in 10.0 mi South 10.4 mph 20.7 mph N/A   Scattered Clouds
1:15 PM 72.7 °F - 49.5 °F 44% 30.07 in 10.0 mi SSW 16.1 mph - N/A   Clear
1:35 PM 72.7 °F - 48.9 °F 43% 30.06 in 10.0 mi South 12.7 mph 23.0 mph N/A   Clear
1:55 PM 72.7 °F - 48.6 °F 42% 30.05 in 10.0 mi SSW 16.1 mph - N/A   Scattered Clouds
2:15 PM 74.8 °F - 50.9 °F 43% 30.04 in 10.0 mi South 12.7 mph 17.3 mph N/A   Scattered Clouds
2:35 PM 75.2 °F - 46.4 °F 36% 30.03 in 10.0 mi SW 17.3 mph 24.2 mph N/A   Scattered Clouds
2:55 PM 75.2 °F - 47.3 °F 37% 30.02 in 10.0 mi SSW 13.8 mph 20.7 mph N/A   Scattered Clouds
3:15 PM 75.4 °F - 46.8 °F 36% 30.00 in 10.0 mi SSW 19.6 mph 25.3 mph N/A   Scattered Clouds
3:35 PM 75.2 °F - 45.9 °F 35% 30.00 in 10.0 mi SSW 15.0 mph 23.0 mph N/A   Scattered Clouds
3:55 PM 75.2 °F - 45.3 °F 34% 29.99 in 10.0 mi South 16.1 mph 27.6 mph N/A   Scattered Clouds
4:15 PM 75.2 °F - 46.2 °F 36% 29.98 in 10.0 mi SSW 12.7 mph 18.4 mph N/A   Mostly Cloudy
4:35 PM 76.5 °F - 46.9 °F 35% 29.97 in 10.0 mi South 15.0 mph - N/A   Mostly Cloudy
4:55 PM 75.2 °F - 46.2 °F 36% 29.96 in 10.0 mi South 17.3 mph 24.2 mph N/A   Mostly Cloudy
5:15 PM 75.2 °F - 45.5 °F 35% 29.96 in 10.0 mi SSW 18.4 mph 21.9 mph N/A   Scattered Clouds
5:35 PM 75.2 °F - 46.4 °F 36% 29.95 in 10.0 mi SSW 18.4 mph 23.0 mph N/A   Scattered Clouds
5:55 PM 75.2 °F - 45.1 °F 34% 29.95 in 10.0 mi SSW 16.1 mph 23.0 mph N/A   Scattered Clouds
6:15 PM 75.2 °F - 46.4 °F 36% 29.95 in 10.0 mi SSW 12.7 mph - N/A   Scattered Clouds
6:35 PM 75.2 °F - 44.8 °F 34% 29.94 in 10.0 mi South 16.1 mph 23.0 mph N/A   Scattered Clouds
6:55 PM 75.2 °F - 45.1 °F 34% 29.93 in 10.0 mi South 17.3 mph 23.0 mph N/A   Scattered Clouds
7:15 PM 75.2 °F - 45.5 °F 35% 29.92 in 10.0 mi South 13.8 mph - N/A   Scattered Clouds
7:35 PM 74.8 °F - 46.2 °F 36% 29.93 in 10.0 mi SSW 11.5 mph - N/A   Clear
7:55 PM 72.7 °F - 45.7 °F 38% 29.92 in 10.0 mi SSW 13.8 mph 19.6 mph N/A   Clear
8:15 PM 72.7 °F - 45.7 °F 38% 29.92 in 10.0 mi South 13.8 mph 20.7 mph N/A   Clear
8:35 PM 72.7 °F - 46.0 °F 39% 29.92 in 10.0 mi South 10.4 mph 16.1 mph N/A   Clear
8:55 PM 72.7 °F - 47.1 °F 40% 29.92 in 10.0 mi South 8.1 mph - N/A   Clear
9:15 PM 72.5 °F - 48.2 °F 42% 29.92 in 10.0 mi SSW 9.2 mph - N/A   Clear
9:35 PM 70.2 °F - 47.3 °F 44% 29.92 in 10.0 mi SSW 9.2 mph - N/A   Clear
9:55 PM 67.6 °F - 46.4 °F 46% 29.91 in 10.0 mi South 6.9 mph - N/A   Clear
10:15 PM 67.6 °F - 47.1 °F 48% 29.91 in 10.0 mi SSW 6.9 mph - N/A   Clear
10:35 PM 67.6 °F - 48.0 °F 49% 29.91 in 10.0 mi SSW 5.8 mph - N/A   Clear
10:55 PM 65.3 °F - 49.1 °F 56% 29.91 in 10.0 mi SW 4.6 mph - N/A   Clear
11:15 PM 61.7 °F - 47.8 °F 60% 29.90 in 10.0 mi SSW 4.6 mph - N/A   Clear
11:35 PM 61.9 °F - 48.2 °F 61% 29.90 in 10.0 mi SW 6.9 mph - N/A   Clear
11:55 PM 64.8 °F - 49.6 °F 58% 29.89 in 10.0 mi SSW 10.4 mph - N/A   Clear